| time (UTC) | temp F | wind direction | speed MPH | gust MPH | rain 1hr in | rain 24hr in | rain mn in | humidity % | barometer mb |
| 20260510071357 | 67 | 0 | 0.0 | 0.0 | 0.00 | 0.51 | 0.00 | 96 | 1010.9 |
| 20260510065557 | 67 | 269 | 0.0 | 1.0 | 0.00 | 0.51 | 0.00 | 96 | 1010.9 |
| 20260510064657 | 67 | 0 | 0.0 | 0.0 | 0.00 | 0.51 | 0.00 | 96 | 1011.1 |
| 20260510063757 | 67 | 0 | 0.0 | 0.0 | 0.00 | 0.51 | 0.00 | 96 | 1011.0 |
| 20260510062857 | 68 | 0 | 0.0 | 0.0 | 0.00 | 0.51 | 0.00 | 96 | 1010.8 |
| 20260510061957 | 68 | 0 | 0.0 | 0.0 | 0.00 | 0.51 | 0.00 | 96 | 1010.8 |
| 20260510061057 | 68 | 0 | 0.0 | 0.0 | 0.00 | 0.51 | 0.00 | 96 | 1010.8 |
| 20260510060157 | 68 | 0 | 0.0 | 0.0 | 0.00 | 0.51 | 0.00 | 95 | 1010.8 |
| 20260510055257 | 68 | 0 | 0.0 | 0.0 | 0.00 | 0.51 | 0.00 | 96 | 1010.7 |
| 20260510054357 | 68 | 0 | 0.0 | 0.0 | 0.00 | 0.51 | 0.00 | 95 | 1010.7 |
| 20260510053457 | 68 | 0 | 0.0 | 0.0 | 0.00 | 0.51 | 0.00 | 95 | 1010.8 |
| 20260510052557 | 68 | 0 | 0.0 | 0.0 | 0.00 | 0.51 | 0.00 | 95 | 1010.8 |
| 20260510050757 | 69 | 0 | 0.0 | 0.0 | 0.00 | 0.51 | 0.00 | 95 | 1010.8 |
| 20260510045857 | 69 | 269 | 0.0 | 1.0 | 0.00 | 0.51 | 0.51 | 95 | 1010.7 |
| 20260510044057 | 69 | 269 | 0.0 | 1.0 | 0.00 | 0.51 | 0.51 | 95 | 1010.6 |
| 20260510043157 | 70 | 0 | 0.0 | 0.0 | 0.00 | 0.51 | 0.51 | 95 | 1010.6 |
| 20260510042257 | 70 | 0 | 0.0 | 0.0 | 0.00 | 0.51 | 0.51 | 95 | 1010.4 |
| 20260510041357 | 70 | 0 | 0.0 | 0.0 | 0.00 | 0.51 | 0.51 | 95 | 1010.3 |
| 20260510040457 | 70 | 0 | 0.0 | 0.0 | 0.00 | 0.51 | 0.51 | 95 | 1010.2 |
| 20260510035557 | 70 | 0 | 0.0 | 0.0 | 0.00 | 0.51 | 0.51 | 95 | 1010.1 |
| 20260510034657 | 70 | 0 | 0.0 | 0.0 | 0.00 | 0.51 | 0.51 | 95 | 1010.1 |
| 20260510033757 | 70 | 0 | 0.0 | 0.0 | 0.00 | 0.51 | 0.51 | 95 | 1010.1 |
| 20260510032857 | 71 | 0 | 0.0 | 0.0 | 0.00 | 0.51 | 0.51 | 95 | 1010.0 |
| 20260510031957 | 71 | 0 | 0.0 | 0.0 | 0.00 | 0.51 | 0.51 | 95 | 1009.9 |
| 20260510031057 | 71 | 0 | 0.0 | 0.0 | 0.00 | 0.51 | 0.51 | 95 | 1009.8 |
| 20260510030157 | 71 | 0 | 0.0 | 0.0 | 0.00 | 0.51 | 0.51 | 94 | 1009.7 |
| 20260510024357 | 72 | 0 | 0.0 | 0.0 | 0.00 | 0.51 | 0.51 | 94 | 1009.5 |
| 20260510022557 | 72 | 269 | 0.0 | 1.0 | 0.00 | 0.51 | 0.51 | 94 | 1009.4 |
| 20260510021657 | 73 | 269 | 0.0 | 1.0 | 0.00 | 0.51 | 0.51 | 94 | 1009.2 |
| 20260510020757 | 73 | 269 | 0.0 | 1.0 | 0.00 | 0.51 | 0.51 | 94 | 1009.1 |
| 20260510015857 | 74 | 269 | 0.0 | 1.0 | 0.00 | 0.51 | 0.51 | 93 | 1009.1 |
| 20260510014957 | 74 | 0 | 0.0 | 0.0 | 0.00 | 0.51 | 0.51 | 93 | 1008.9 |
| 20260510012257 | 76 | 0 | 0.0 | 0.0 | 0.00 | 0.51 | 0.51 | 92 | 1008.7 |
| 20260510011357 | 76 | 0 | 0.0 | 0.0 | 0.00 | 0.51 | 0.51 | 92 | 1008.6 |
| 20260510010457 | 77 | 0 | 0.0 | 0.0 | 0.00 | 0.51 | 0.51 | 91 | 1008.5 |
| 20260510005557 | 78 | 0 | 0.0 | 0.0 | 0.00 | 0.51 | 0.51 | 89 | 1008.4 |
| 20260510004657 | 79 | 0 | 0.0 | 0.0 | 0.00 | 0.51 | 0.51 | 88 | 1008.3 |
| 20260510003757 | 80 | 0 | 0.0 | 0.0 | 0.00 | 0.51 | 0.51 | 86 | 1008.3 |
| 20260510002857 | 82 | 0 | 0.0 | 0.0 | 0.00 | 0.51 | 0.51 | 83 | 1008.2 |
| 20260510001957 | 82 | 0 | 0.0 | 0.0 | 0.00 | 0.51 | 0.51 | 81 | 1008.1 |
| 20260510001057 | 82 | 0 | 0.0 | 0.0 | 0.00 | 0.51 | 0.51 | 83 | 1008.2 |
| 20260510000157 | 83 | 0 | 0.0 | 0.0 | 0.00 | 0.51 | 0.51 | 78 | 1008.1 |
| 20260509235257 | 82 | 0 | 0.0 | 0.0 | 0.00 | 0.51 | 0.51 | 83 | 1008.0 |
| 20260509234357 | 81 | 0 | 0.0 | 0.0 | 0.00 | 0.51 | 0.51 | 84 | 1007.9 |
| 20260509232557 | 78 | 269 | 0.0 | 1.0 | 0.00 | 0.51 | 0.51 | 91 | 1007.9 |
| 20260509231657 | 78 | 0 | 0.0 | 0.0 | 0.00 | 0.51 | 0.51 | 93 | 1007.9 |
| 20260509230757 | 76 | 269 | 0.0 | 1.0 | 0.01 | 0.51 | 0.51 | 93 | 1007.8 |
| 20260509225857 | 75 | 269 | 0.0 | 1.0 | 0.17 | 0.51 | 0.51 | 96 | 1007.8 |
| 20260509224957 | 74 | 270 | 0.0 | 1.0 | 0.49 | 0.51 | 0.51 | 94 | 1007.8 |
| 20260509224057 | 72 | 275 | 0.0 | 3.0 | 0.51 | 0.51 | 0.51 | 95 | 1007.8 |
| 20260509223157 | 71 | 191 | 1.0 | 3.0 | 0.51 | 0.51 | 0.51 | 93 | 1007.3 |
| 20260509222257 | 71 | 138 | 0.0 | 5.0 | 0.51 | 0.51 | 0.51 | 93 | 1007.4 |
| 20260509221357 | 70 | 120 | 2.0 | 5.0 | 0.51 | 0.51 | 0.51 | 92 | 1007.2 |
| 20260509220457 | 70 | 326 | 5.0 | 7.0 | 0.45 | 0.45 | 0.46 | 89 | 1007.8 |
| 20260509213757 | 88 | 170 | 1.0 | 6.0 | 0.00 | 0.00 | 0.00 | 57 | 1008.2 |
| 20260509212857 | 91 | 309 | 2.0 | 6.0 | 0.00 | 0.00 | 0.00 | 58 | 1007.7 |
| 20260509211957 | 91 | 284 | 2.0 | 6.0 | 0.00 | 0.00 | 0.00 | 58 | 1007.9 |
| 20260509210157 | 92 | 323 | 1.0 | 5.0 | 0.00 | 0.00 | 0.00 | 59 | 1008.0 |
| 20260509205257 | 91 | 295 | 1.0 | 4.0 | 0.00 | 0.00 | 0.00 | 62 | 1008.1 |
| 20260509204357 | 90 | 41 | 1.0 | 2.0 | 0.00 | 0.00 | 0.00 | 59 | 1008.3 |
| 20260509203457 | 91 | 30 | 0.0 | 3.0 | 0.00 | 0.00 | 0.00 | 59 | 1008.4 |
| 20260509202557 | 92 | 350 | 1.0 | 2.0 | 0.00 | 0.00 | 0.00 | 56 | 1008.6 |
| 20260509200757 | 91 | 66 | 1.0 | 2.0 | 0.00 | 0.00 | 0.00 | 60 | 1008.8 |
| 20260509195857 | 91 | 47 | 1.0 | 4.0 | 0.00 | 0.00 | 0.00 | 61 | 1008.9 |
| 20260509194957 | 90 | 122 | 1.0 | 4.0 | 0.00 | 0.00 | 0.00 | 62 | 1009.0 |
| 20260509194057 | 90 | 240 | 1.0 | 3.0 | 0.00 | 0.00 | 0.00 | 60 | 1009.0 |
| 20260509193157 | 90 | 5 | 1.0 | 4.0 | 0.00 | 0.00 | 0.00 | 63 | 1009.1 |
| 20260509192257 | 89 | 298 | 1.0 | 4.0 | 0.00 | 0.00 | 0.00 | 63 | 1009.3 |
| 20260509191357 | 89 | 223 | 1.0 | 3.0 | 0.00 | 0.00 | 0.00 | 67 | 1009.5 |
| 20260509190457 | 88 | 117 | 2.0 | 7.0 | 0.00 | 0.00 | 0.00 | 65 | 1009.7 |
| 20260509184657 | 88 | 329 | 0.0 | 4.0 | 0.00 | 0.00 | 0.00 | 66 | 1009.9 |
| 20260509182857 | 87 | 318 | 1.0 | 4.0 | 0.00 | 0.00 | 0.00 | 66 | 1010.0 |
| 20260509181957 | 87 | 333 | 1.0 | 5.0 | 0.00 | 0.00 | 0.00 | 67 | 1010.1 |
| 20260509181057 | 87 | 281 | 1.0 | 4.0 | 0.00 | 0.00 | 0.00 | 68 | 1010.2 |
| 20260509175257 | 87 | 353 | 1.0 | 4.0 | 0.00 | 0.00 | 0.00 | 68 | 1010.4 |
| 20260509174357 | 86 | 19 | 1.0 | 4.0 | 0.00 | 0.00 | 0.00 | 69 | 1010.5 |
| 20260509173457 | 86 | 62 | 1.0 | 4.0 | 0.00 | 0.00 | 0.00 | 71 | 1010.6 |
| 20260509172557 | 85 | 115 | 1.0 | 5.0 | 0.00 | 0.00 | 0.00 | 75 | 1010.9 |
| 20260509171657 | 85 | 64 | 1.0 | 5.0 | 0.00 | 0.00 | 0.00 | 74 | 1010.9 |
| 20260509170757 | 84 | 39 | 1.0 | 3.0 | 0.00 | 0.00 | 0.00 | 74 | 1010.9 |
| 20260509165857 | 84 | 263 | 1.0 | 4.0 | 0.00 | 0.00 | 0.00 | 77 | 1010.8 |
| 20260509164957 | 84 | 322 | 1.0 | 5.0 | 0.00 | 0.00 | 0.00 | 77 | 1010.9 |
| 20260509164057 | 82 | 315 | 1.0 | 4.0 | 0.00 | 0.00 | 0.00 | 81 | 1011.1 |
| 20260509163157 | 81 | 124 | 0.0 | 6.0 | 0.00 | 0.00 | 0.00 | 82 | 1011.0 |
| 20260509162257 | 80 | 125 | 1.0 | 4.0 | 0.00 | 0.00 | 0.00 | 84 | 1011.0 |
| 20260509161357 | 80 | 114 | 1.0 | 3.0 | 0.00 | 0.00 | 0.00 | 83 | 1011.1 |
| 20260509160457 | 80 | 141 | 0.0 | 3.0 | 0.00 | 0.00 | 0.00 | 83 | 1010.9 |
| 20260509153757 | 77 | 120 | 1.0 | 6.0 | 0.00 | 0.00 | 0.00 | 90 | 1010.8 |
| 20260509152857 | 78 | 337 | 1.0 | 6.0 | 0.00 | 0.00 | 0.00 | 89 | 1010.8 |
| 20260509151957 | 76 | 336 | 1.0 | 4.0 | 0.00 | 0.00 | 0.00 | 93 | 1010.7 |
| 20260509151057 | 76 | 9 | 0.0 | 2.0 | 0.00 | 0.00 | 0.00 | 94 | 1011.1 |
| 20260509150157 | 75 | 330 | 0.0 | 2.0 | 0.00 | 0.00 | 0.00 | 96 | 1011.1 |
| 20260509145257 | 74 | 280 | 0.0 | 1.0 | 0.00 | 0.00 | 0.00 | 96 | 1011.4 |
| 20260509144357 | 74 | 280 | 0.0 | 1.0 | 0.00 | 0.00 | 0.00 | 96 | 1011.5 |
| 20260509143457 | 74 | 280 | 0.0 | 1.0 | 0.00 | 0.00 | 0.00 | 96 | 1011.5 |
| 20260509142557 | 73 | 281 | 0.0 | 1.0 | 0.00 | 0.00 | 0.00 | 96 | 1011.4 |
| 20260509141657 | 73 | 249 | 0.0 | 2.0 | 0.00 | 0.00 | 0.00 | 96 | 1011.3 |
| 20260509140757 | 73 | 141 | 0.0 | 1.0 | 0.00 | 0.00 | 0.00 | 96 | 1010.8 |
| 20260509135857 | 73 | 142 | 0.0 | 1.0 | 0.00 | 0.00 | 0.00 | 96 | 1010.6 |
| 20260509134957 | 72 | 140 | 0.0 | 1.0 | 0.00 | 0.00 | 0.00 | 96 | 1010.6 |
| 20260509134057 | 72 | 141 | 0.0 | 1.0 | 0.00 | 0.00 | 0.00 | 96 | 1010.8 |
| 20260509133157 | 72 | 141 | 0.0 | 1.0 | 0.00 | 0.00 | 0.00 | 96 | 1010.8 |
| 20260509132257 | 72 | 159 | 0.0 | 2.0 | 0.00 | 0.00 | 0.00 | 96 | 1011.0 |
| 20260509131357 | 72 | 0 | 0.0 | 0.0 | 0.00 | 0.00 | 0.00 | 96 | 1010.8 |
| 20260509130457 | 72 | 205 | 0.0 | 1.0 | 0.00 | 0.00 | 0.00 | 96 | 1010.6 |
| 20260509125557 | 72 | 205 | 0.0 | 1.0 | 0.00 | 0.00 | 0.00 | 96 | 1010.5 |
| 20260509124657 | 72 | 156 | 0.0 | 1.0 | 0.00 | 0.00 | 0.00 | 96 | 1010.3 |
| 20260509122857 | 72 | 130 | 0.0 | 1.0 | 0.00 | 0.00 | 0.00 | 96 | 1010.4 |
| 20260509121957 | 72 | 131 | 0.0 | 1.0 | 0.00 | 0.00 | 0.00 | 96 | 1010.8 |
| 20260509120157 | 72 | 131 | 0.0 | 1.0 | 0.00 | 0.00 | 0.00 | 96 | 1010.8 |
| 20260509115257 | 72 | 138 | 0.0 | 2.0 | 0.00 | 0.00 | 0.00 | 96 | 1010.8 |
| 20260509113457 | 72 | 144 | 1.0 | 4.0 | 0.00 | 0.00 | 0.00 | 96 | 1010.9 |
| 20260509112557 | 72 | 145 | 1.0 | 5.0 | 0.00 | 0.00 | 0.00 | 96 | 1010.9 |
| 20260509111657 | 72 | 139 | 1.0 | 5.0 | 0.00 | 0.00 | 0.00 | 96 | 1010.6 |
| 20260509105857 | 72 | 126 | 0.0 | 2.0 | 0.00 | 0.00 | 0.00 | 96 | 1009.9 |
| 20260509104957 | 72 | 0 | 0.0 | 0.0 | 0.00 | 0.00 | 0.00 | 96 | 1009.9 |
| 20260509104057 | 72 | 336 | 0.0 | 1.0 | 0.00 | 0.00 | 0.00 | 96 | 1010.2 |
| 20260509103157 | 72 | 0 | 0.0 | 0.0 | 0.00 | 0.00 | 0.00 | 96 | 1010.4 |
| 20260509102257 | 72 | 336 | 0.0 | 1.0 | 0.00 | 0.00 | 0.00 | 96 | 1010.3 |
| 20260509101357 | 72 | 0 | 0.0 | 0.0 | 0.00 | 0.00 | 0.00 | 95 | 1010.5 |
| 20260509095557 | 72 | 336 | 0.0 | 1.0 | 0.00 | 0.00 | 0.00 | 95 | 1010.3 |
| 20260509094657 | 72 | 0 | 0.0 | 0.0 | 0.00 | 0.00 | 0.00 | 95 | 1010.3 |
| 20260509093757 | 72 | 0 | 0.0 | 0.0 | 0.00 | 0.00 | 0.00 | 95 | 1010.0 |
| 20260509092857 | 72 | 0 | 0.0 | 0.0 | 0.00 | 0.00 | 0.00 | 95 | 1010.0 |
| 20260509091957 | 72 | 336 | 0.0 | 1.0 | 0.00 | 0.00 | 0.00 | 95 | 1010.0 |
| 20260509091057 | 72 | 0 | 0.0 | 0.0 | 0.00 | 0.00 | 0.00 | 95 | 1009.9 |
| 20260509090157 | 72 | 336 | 0.0 | 1.0 | 0.00 | 0.00 | 0.00 | 95 | 1009.5 |
| 20260509085257 | 72 | 0 | 0.0 | 0.0 | 0.00 | 0.00 | 0.00 | 95 | 1009.4 |
| 20260509084357 | 72 | 0 | 0.0 | 0.0 | 0.00 | 0.00 | 0.00 | 95 | 1009.4 |
| 20260509082556 | 72 | 336 | 0.0 | 1.0 | 0.00 | 0.00 | 0.00 | 95 | 1009.6 |
| 20260509075857 | 72 | 311 | 1.0 | 2.0 | 0.00 | 0.00 | 0.00 | 94 | 1009.9 |
| 20260509074957 | 72 | 285 | 1.0 | 3.0 | 0.00 | 0.00 | 0.00 | 94 | 1009.7 |
| 20260509074057 | 72 | 297 | 0.0 | 3.0 | 0.00 | 0.00 | 0.00 | 94 | 1009.7 |
| 20260509073157 | 72 | 339 | 0.0 | 4.0 | 0.00 | 0.00 | 0.00 | 94 | 1009.7 |
| 20260509072257 | 72 | 332 | 0.0 | 2.0 | 0.00 | 0.00 | 0.00 | 94 | 1009.7 |